ELECTRON R/B

Last updated on April 22, 2021, 12:02 a.m. UTC

1 47970U 21023F   21111.58664788  .00069052  99704-5  63931-3 0  9994
2 47970  45.0064 295.8503 0180092  54.9855 306.7723 15.49555013  4589

Satellite is not in orbit.